sat.trackr.live / text

‹ back to catalog

STARLINK-33769

NORAD 63773 · 2025-089X

PAYLOAD ACTIVE UNKNOWN

§ Identity

Operator
Country
US
Launch date
2025-04-29
Launch site
AFETR
Launch vehicle
Mass (kg)
RCS (m²)

Purposes: comms

External: N2YO · Heavens-Above · Gunter

§ Orbital elements

Epoch: 2026-09-20T19:43:55.265088Z

Period
94.27 min
Inclination
43.0014°
Eccentricity
0.0001512
Mean motion
15.27589547 rev/d
Perigee alt
482.0 km
Apogee alt
484.1 km
Semi-major
6,861.2 km
B*
4.4228e-4
RAAN
22.9576°
Arg perigee
274.5061°
Mean anomaly
85.5618°
Rev number
7,879

§ Raw data

STARLINK-337691 63773U 25089X   26263.82216742  .00011932  00000+0  44228-3 0  99992 63773  43.0014  22.9576 0001512 274.5061  85.5618 15.27589547 78792

JSON: /api/v1/satellites/63773 · /tle

For live sub-satellite position, see the globe view (requires WebGL).

§ Visibility from observer

Set your observer location to see the next 7 days of passes ≥ 10°. The values pass through the URL so the page stays shareable.

No JS? Fill the form by hand. The geolocation button needs JavaScript.